Terug naar catalogus

STARLINK-34413

ActiefCommunicatieVLEO
NORAD 64616·PAYLOAD·🇺🇸 United States

Gelanceerd Jun 25, 2025 vanaf Cape Canaveral Space Force Station

Loading…

Volgende Passages (komende 24 uur)

TLE

VersSource: CelesTrak SupGP

Epoch: Sep 15, 2026, 03:01 UTC

1 64616C 25137Y   26258.12618056 -.00026993  00000+0 -79769-3 0  2582
2 64616  53.1575 172.5928 0001294  89.6125  29.8221 15.34397378    17

Volg STARLINK-34413 in realtime met AllMySat

Download on the App Store